{"data":{"norad_id":82199,"epoch":"2026-09-17T15:11:13.803360Z","epoch_age_seconds":262038,"freshness":"STALE","line1":"1 82199U          26260.63279865  .00000351  00000+0  29019-3 0  9993","line2":"2 82199  82.9689  24.1508 0035758 324.5577  48.7169 13.86044804648320","mean_motion":13.86044804,"eccentricity":0.0035758,"inclination_deg":82.9689,"raan_deg":24.1508,"arg_perigee_deg":324.5577,"mean_anomaly_deg":48.7169,"bstar":0.00029019,"rev_number":64832,"period_min":103.89274544692,"perigee_km":916.347322413,"apogee_km":968.70176551079,"semimajor_km":7320.6615439619,"source":"CELESTRAK","updated_at":"2026-09-20T09:00:32.431379Z"}}